Location: Bastogne Gables
(35.1554°N, 78.9900°W)
Time: 02:46:41
(UTC+00:00)

SMAP - Pass Details

Date: 29 October 2020
Orbit: 681 x 683 km, 98.1° (Epoch: 26 November)

Event Time Altitude Azimuth Distance (km) Brightness Sun altitude
Rises 22:52:56 0° 170° (S) 3,029 6.4 -6.6°
Reaches altitude 10° 22:55:10 10° 172° (S) 2,117 5.7 -7.0°
Maximum altitude 22:59:48 74° 257° (WSW) 711 3.4 -8.0°
Drops below altitude 10° 23:04:27 10° 344° (NNW) 2,131 5.7 -8.9°
Sets 23:06:43 0° 346° (NNW) 3,050 6.5 -9.3°
